Estherville, IA

1:11 PM CST on February 26, 2017 (GMT -0600)
Estherville Municipal

Weather History for KEST - March, 2013

Change the Weather History Date:

Wednesday, March 27, 2013

  Actual Average Record
Temperature  
Mean Temperature 32 °F 38 °F  
Max Temperature 40 °F 48 °F 78 °F (1991)
Min Temperature 23 °F 28 °F 6 °F (1955)
Degree Days  
Heating Degree Days 33 27  
Month to date heating degree days 1097 895  
Since 1 July heating degree days 6736 6810  
Cooling Degree Days 0 0  
Month to date cooling degree days 0 0  
Year to date cooling degree days 0 0  
Moisture  
Dew Point 25 °F    
Average Humidity 74    
Maximum Humidity 88    
Minimum Humidity 59    
Precipitation  
Precipitation 0.00 in 0.07 in 1.82 in (2004)
Month to date precipitation 1.05 1.26  
Sea Level Pressure  
Sea Level Pressure 30.32 in    
Wind  
Wind Speed 7 mph (SE)    
Max Wind Speed 13 mph    
Max Gust Speed 16 mph    
Visibility 10 miles    
Events      
T = Trace of Precipitation, MM = Missing Value Source: NWS Daily Summary

Daily Weather History Graph

Daily Weather History Graph

Search for Another Location

Airport or City:

Trip Planner

Search our weather history database for the weather conditions in past years. The results will help you decide how hot, cold, wet, or windy it might be!

Date:

Astronomy

Mar. 27, 2013 Rise Set
Actual Time 7:09 AM CDT 7:40 PM CDT
Civil Twilight 6:40 AM CDT 8:08 PM CDT
Nautical Twilight 6:06 AM CDT 8:42 PM CDT
Astronomical Twilight 5:31 AM CDT 9:17 PM CDT
Moon 8:27 PM CDT (3/27) 6:59 AM CDT (3/27)
Length of Visible Light 13h 28m
Length of Day
12h 30m
Full, 100% of the Moon is Illuminated
Mar 27
Full
Apr 2
Last Quarter
Apr 10
New
Apr 18
First Quarter
Apr 25
Full

Hourly Weather History & Observations

Time (CDT) Temp. Windchill Dew Point Humidity Pressure Visibility Wind Dir Wind Speed Gust Speed Precip Events Conditions
12:52 AM 26.1 °F 21.9 °F 23.0 °F 88% 30.33 in 10.0 mi SSE 3.5 mph - N/A   Clear
1:52 AM 27.0 °F - 23.0 °F 85% 30.32 in 10.0 mi Calm Calm - N/A   Clear
2:52 AM 27.0 °F 23.0 °F 21.9 °F 81% 30.31 in 10.0 mi SSE 3.5 mph - N/A   Clear
3:52 AM 26.1 °F - 21.9 °F 84% 30.32 in 10.0 mi Calm Calm - N/A   Clear
4:52 AM 24.1 °F - 21.0 °F 88% 30.32 in 10.0 mi Calm Calm - N/A   Clear
5:52 AM 24.1 °F 18.2 °F 21.0 °F 88% 30.32 in 10.0 mi East 4.6 mph - N/A   Clear
6:52 AM 24.1 °F 17.0 °F 21.0 °F 88% 30.32 in 10.0 mi ESE 5.8 mph - N/A   Clear
7:52 AM 25.0 °F 18.1 °F 21.9 °F 88% 30.33 in 10.0 mi SE 5.8 mph - N/A   Clear
8:52 AM 28.9 °F 21.9 °F 24.1 °F 82% 30.34 in 10.0 mi SE 6.9 mph - N/A   Clear
9:52 AM 33.1 °F 26.1 °F 26.1 °F 75% 30.34 in 10.0 mi SSE 8.1 mph - N/A   Clear
10:52 AM 34.0 °F 26.0 °F 26.1 °F 73% 30.35 in 10.0 mi SSE 10.4 mph - N/A   Clear
11:52 AM 36.0 °F 28.0 °F 25.0 °F 64% 30.35 in 10.0 mi SSE 11.5 mph - N/A   Clear
12:52 PM 37.0 °F 29.8 °F 26.1 °F 65% 30.34 in 10.0 mi SSE 10.4 mph - N/A   Clear
1:52 PM 37.9 °F 31.5 °F 27.0 °F 65% 30.33 in 10.0 mi South 9.2 mph - N/A   Clear
2:52 PM 39.9 °F 34.5 °F 27.0 °F 60% 30.32 in 10.0 mi South 8.1 mph - N/A   Clear
3:52 PM 39.9 °F 35.1 °F 28.0 °F 63% 30.30 in 10.0 mi SSE 6.9 mph - N/A   Partly Cloudy
4:52 PM 39.9 °F 35.1 °F 28.0 °F 63% 30.30 in 10.0 mi Variable 6.9 mph - N/A   Clear
5:52 PM 39.0 °F - 28.0 °F 65% 30.29 in 10.0 mi North - - N/A   Clear
6:52 PM 37.0 °F 30.4 °F 28.0 °F 70% 30.30 in 10.0 mi SE 9.2 mph - N/A   Clear
7:52 PM 32.0 °F 25.6 °F 27.0 °F 82% 30.32 in 9.0 mi SE 6.9 mph - N/A   Clear
8:52 PM 30.9 °F 24.3 °F 27.0 °F 85% 30.32 in 10.0 mi ESE 6.9 mph - N/A   Clear
9:52 PM 30.9 °F 27.5 °F 27.0 °F 85% 30.34 in 9.0 mi East 3.5 mph - N/A   Clear
10:52 PM 30.0 °F 24.1 °F 26.1 °F 85% 30.35 in 8.0 mi East 5.8 mph - N/A   Clear
11:52 PM 30.9 °F 23.5 °F 27.0 °F 85% 30.33 in 8.0 mi ESE 8.1 mph - N/A   Overcast